STARLINK-1669 (47624 NORAD) Tracking and Keplerian Element Data

This shows tracking and keplerian element data for the satellite.

Feedback or suggestion? Click here.




ElementValue
Catalog47624
NameSTARLINK-1669
Epoch Orbit235
Epoch Day57.16667824
Epoch Year2021
RAAN52.034
Inclination53.0492
Eccentricity6.39E-05
Argument of Perigee85.4869
Mean Anonmoly169.1997
Mean Motion15.85872963
Decay Rate0.00058193
L11 47624U 21012E 21057.16667824 .00058193 00000-0 23418-3 0 9991
L22 47624 53.0492 52.0340 0000639 85.4869 169.1997 15.85872963 2356

Live tracking and technical data element details for STARLINK-1669 (NORAD 47624). STARLINK-1669 can be tracked NOW for your location showing map with azimuth and elevation plus other details from your city location.

Track the satellite on the map from your city or location and see movement details for azimuth, elevation, latitude, longitude, range, height, and movement on the map or in text.







IsCatalogInMostPopularTable: catalog: 47624, numindb: 1
Update: records affected: 1



GetName: 47624 STARLINK-1669

Hit Count: updated at: Fri, 26 Feb 2021 10:35:03 GMT